JST412 YBCG-YMML

Flight info

Callsign JST412
Flight time 2h 0m
Altitude 36000
Route GOMOL Q16 ISKIM Q35 DORSU H119 ML
Aircraft A320/M-SDE3FGHIRWY/LB1

Departure

Time 2026-05-07 06:13
Airport Gold Coast Airport (YBCG)

Arrival

Time 2026-05-07 08:13
Airport Melbourne Airport (YMML)
Time Latitude Longitude Altitude Speed Heading
2026-05-07 05:44 -28.16523 153.51112 25 ft 0 kts 100°
2026-05-07 06:05 -28.16520 153.51094 26 ft 2 kts 100°
2026-05-07 06:05 -28.16517 153.51075 27 ft 2 kts 100°
2026-05-07 06:05 -28.16514 153.51056 29 ft 3 kts 102°
2026-05-07 06:05 -28.16507 153.51037 28 ft 3 kts 137°
2026-05-07 06:06 -28.16492 153.51027 27 ft 2 kts 161°
2026-05-07 06:06 -28.16491 153.51027 27 ft 0 kts 161°
2026-05-07 06:08 -28.16492 153.51027 25 ft 1 kts 162°
2026-05-07 06:08 -28.16494 153.51028 25 ft 0 kts 162°
2026-05-07 06:09 -28.16499 153.51029 25 ft 2 kts 163°
2026-05-07 06:09 -28.16518 153.51024 25 ft 4 kts 197°
2026-05-07 06:09 -28.16551 153.51016 27 ft 6 kts 181°
2026-05-07 06:09 -28.16596 153.51033 24 ft 8 kts 152°
2026-05-07 06:10 -28.16650 153.51066 26 ft 10 kts 152°
2026-05-07 06:10 -28.16715 153.51107 24 ft 12 kts 150°
2026-05-07 06:10 -28.16792 153.51155 26 ft 13 kts 159°
2026-05-07 06:10 -28.16869 153.51107 23 ft 14 kts 233°
2026-05-07 06:11 -28.16958 153.51117 23 ft 15 kts 150°
2026-05-07 06:11 -28.17054 153.51178 22 ft 17 kts 151°
2026-05-07 06:11 -28.17160 153.51245 22 ft 18 kts 151°
2026-05-07 06:11 -28.17281 153.51321 24 ft 21 kts 150°
2026-05-07 06:12 -28.17412 153.51405 22 ft 23 kts 150°
2026-05-07 06:12 -28.17534 153.51426 22 ft 17 kts 213°
2026-05-07 06:12 -28.17583 153.51320 22 ft 14 kts 273°
2026-05-07 06:12 -28.17505 153.51246 22 ft 19 kts 332°
2026-05-07 06:13 -28.17204 153.51056 23 ft 82 kts 330°
2026-05-07 06:13 -28.16545 153.50640 27 ft 133 kts 331°
2026-05-07 06:13 -28.15648 153.50075 317 ft 148 kts 329°
2026-05-07 06:13 -28.14754 153.49498 879 ft 148 kts 327°
2026-05-07 06:14 -28.13886 153.48941 1434 ft 143 kts 324°
2026-05-07 06:14 -28.13067 153.48299 1763 ft 148 kts 303°
2026-05-07 06:14 -28.12721 153.47166 1842 ft 169 kts 263°
2026-05-07 06:14 -28.13282 153.45932 2036 ft 194 kts 231°
2026-05-07 06:15 -28.14244 153.44731 2280 ft 218 kts 228°
2026-05-07 06:15 -28.15345 153.43412 2674 ft 242 kts 227°
2026-05-07 06:15 -28.16534 153.42001 3374 ft 250 kts 228°
2026-05-07 06:15 -28.17738 153.40570 4268 ft 251 kts 229°
2026-05-07 06:16 -28.18941 153.39131 5193 ft 252 kts 230°
2026-05-07 06:16 -28.20148 153.37678 6105 ft 254 kts 231°
2026-05-07 06:16 -28.21357 153.36218 6928 ft 256 kts 231°
2026-05-07 06:16 -28.22588 153.34729 7714 ft 260 kts 232°
2026-05-07 06:17 -28.23821 153.33237 8365 ft 265 kts 232°
2026-05-07 06:17 -28.25096 153.31694 9096 ft 269 kts 231°
2026-05-07 06:17 -28.26387 153.30129 9816 ft 273 kts 232°
2026-05-07 06:17 -28.27703 153.28529 10296 ft 285 kts 231°
2026-05-07 06:18 -28.29104 153.26818 10458 ft 308 kts 231°
2026-05-07 06:18 -28.30609 153.24981 10590 ft 330 kts 231°
2026-05-07 06:18 -28.32224 153.23014 10793 ft 347 kts 231°
2026-05-07 06:18 -28.33894 153.20986 11330 ft 353 kts 231°
2026-05-07 06:19 -28.35586 153.18936 11935 ft 357 kts 230°
2026-05-07 06:19 -28.37294 153.16868 12558 ft 361 kts 230°
2026-05-07 06:19 -28.39014 153.14777 13179 ft 364 kts 231°
2026-05-07 06:19 -28.40748 153.12664 13802 ft 367 kts 230°
2026-05-07 06:20 -28.42493 153.10534 14372 ft 370 kts 231°
2026-05-07 06:20 -28.44251 153.08387 14938 ft 372 kts 231°
2026-05-07 06:20 -28.45997 153.06258 15506 ft 374 kts 231°
2026-05-07 06:20 -28.47778 153.04088 16097 ft 376 kts 231°
2026-05-07 06:21 -28.49566 153.01909 16703 ft 378 kts 231°
2026-05-07 06:21 -28.51365 152.99717 17289 ft 381 kts 231°
2026-05-07 06:21 -28.53175 152.97508 17886 ft 383 kts 231°
2026-05-07 06:21 -28.54997 152.95280 18464 ft 385 kts 232°
2026-05-07 06:22 -28.56823 152.93045 18964 ft 387 kts 232°
2026-05-07 06:22 -28.60510 152.88520 19974 ft 392 kts 232°
2026-05-07 06:22 -28.62370 152.86239 20443 ft 394 kts 233°
2026-05-07 06:23 -28.64242 152.83945 20917 ft 396 kts 233°
2026-05-07 06:23 -28.66120 152.81642 21357 ft 398 kts 233°
2026-05-07 06:23 -28.68005 152.79330 21777 ft 399 kts 233°
2026-05-07 06:23 -28.69899 152.77005 22169 ft 401 kts 233°
2026-05-07 06:24 -28.71800 152.74668 22541 ft 404 kts 233°
2026-05-07 06:24 -28.73716 152.72308 22909 ft 406 kts 234°
2026-05-07 06:24 -28.75639 152.69939 23318 ft 408 kts 234°
2026-05-07 06:24 -28.77567 152.67564 23687 ft 409 kts 234°
2026-05-07 06:25 -28.79507 152.65173 23991 ft 411 kts 234°
2026-05-07 06:25 -28.81451 152.62772 24315 ft 412 kts 235°
2026-05-07 06:25 -28.83400 152.60364 24642 ft 414 kts 235°
2026-05-07 06:25 -28.85354 152.57943 24950 ft 415 kts 236°
2026-05-07 06:26 -28.87230 152.55506 25278 ft 414 kts 237°
2026-05-07 06:26 -28.89078 152.52990 25623 ft 413 kts 238°
2026-05-07 06:26 -28.90894 152.50455 26081 ft 410 kts 239°
2026-05-07 06:26 -28.92689 152.47934 26495 ft 409 kts 239°
2026-05-07 06:27 -28.94484 152.45422 26970 ft 407 kts 239°
2026-05-07 06:27 -28.96276 152.42934 27448 ft 405 kts 239°
2026-05-07 06:27 -28.98068 152.40465 27914 ft 403 kts 239°
2026-05-07 06:27 -28.99858 152.38009 28410 ft 401 kts 240°
2026-05-07 06:28 -29.01642 152.35564 28910 ft 399 kts 240°
2026-05-07 06:28 -29.03417 152.33129 29389 ft 398 kts 240°
2026-05-07 06:28 -29.05182 152.30703 29872 ft 396 kts 240°
2026-05-07 06:28 -29.06941 152.28280 30314 ft 394 kts 241°
2026-05-07 06:29 -29.08688 152.25871 30708 ft 393 kts 241°
2026-05-07 06:29 -29.10435 152.23466 31111 ft 393 kts 241°
2026-05-07 06:29 -29.12180 152.21061 31429 ft 392 kts 241°
2026-05-07 06:29 -29.13919 152.18659 31813 ft 391 kts 241°
2026-05-07 06:30 -29.15654 152.16265 32198 ft 390 kts 241°
2026-05-07 06:30 -29.17390 152.13869 32592 ft 389 kts 241°
2026-05-07 06:30 -29.19091 152.11515 32989 ft 388 kts 242°
2026-05-07 06:30 -29.20812 152.09129 33419 ft 386 kts 242°
2026-05-07 06:31 -29.22522 152.06756 33852 ft 385 kts 242°
2026-05-07 06:31 -29.24207 152.04418 34241 ft 383 kts 242°
2026-05-07 06:31 -29.25903 152.02067 34581 ft 382 kts 242°
2026-05-07 06:31 -29.27594 151.99723 34917 ft 380 kts 242°
2026-05-07 06:32 -29.29284 151.97377 35244 ft 379 kts 242°
2026-05-07 06:32 -29.30956 151.95054 35554 ft 377 kts 242°
2026-05-07 06:32 -29.32626 151.92736 35855 ft 376 kts 243°
2026-05-07 06:32 -29.34291 151.90425 36040 ft 376 kts 242°
2026-05-07 06:33 -29.37631 151.85758 36083 ft 387 kts 242°
2026-05-07 06:33 -29.41079 151.80938 36079 ft 391 kts 242°
2026-05-07 06:34 -29.44561 151.76107 36082 ft 392 kts 242°
2026-05-07 06:34 -29.48017 151.71289 36086 ft 392 kts 242°
2026-05-07 06:35 -29.51647 151.66584 36091 ft 407 kts 232°
2026-05-07 06:35 -29.54032 151.64678 36087 ft 425 kts 223°
2026-05-07 06:35 -29.56617 151.63002 36095 ft 426 kts 223°
2026-05-07 06:36 -29.61769 151.59687 36106 ft 427 kts 222°
2026-05-07 06:36 -29.66964 151.56335 36116 ft 427 kts 222°
2026-05-07 06:37 -29.72107 151.52993 36120 ft 427 kts 222°
2026-05-07 06:37 -29.77295 151.49610 36127 ft 427 kts 222°
2026-05-07 06:38 -29.82455 151.46251 36134 ft 427 kts 222°
2026-05-07 06:38 -29.87633 151.42871 36140 ft 427 kts 222°
2026-05-07 06:39 -29.92801 151.39495 36138 ft 427 kts 222°
2026-05-07 06:39 -29.97966 151.36113 36147 ft 427 kts 222°
2026-05-07 06:40 -30.03130 151.32730 36150 ft 426 kts 222°
2026-05-07 06:40 -30.08284 151.29351 36154 ft 426 kts 222°
2026-05-07 06:41 -30.13407 151.25989 36150 ft 426 kts 222°
2026-05-07 06:41 -30.18553 151.22614 36155 ft 426 kts 222°
2026-05-07 06:42 -30.23709 151.19218 36156 ft 426 kts 222°
2026-05-07 06:42 -30.28833 151.15835 36167 ft 426 kts 222°
2026-05-07 06:43 -30.33967 151.12451 36173 ft 425 kts 223°
2026-05-07 06:43 -30.39126 151.09045 36180 ft 425 kts 223°
2026-05-07 06:44 -30.44245 151.05664 36175 ft 425 kts 223°
2026-05-07 06:44 -30.49371 151.02267 36181 ft 424 kts 223°
2026-05-07 06:45 -30.54490 150.98869 36187 ft 423 kts 223°
2026-05-07 06:45 -30.59606 150.95466 36187 ft 422 kts 223°
2026-05-07 06:46 -30.64688 150.92088 36191 ft 422 kts 223°
2026-05-07 06:46 -30.69799 150.88698 36197 ft 422 kts 223°
2026-05-07 06:47 -30.74868 150.85322 36192 ft 422 kts 223°
2026-05-07 06:47 -30.79961 150.81922 36197 ft 422 kts 223°
2026-05-07 06:48 -30.85052 150.78523 36199 ft 421 kts 223°
2026-05-07 06:48 -30.90126 150.75132 36202 ft 421 kts 223°
2026-05-07 06:49 -30.95216 150.71730 36204 ft 420 kts 223°
2026-05-07 06:49 -31.00248 150.68359 36203 ft 419 kts 223°
2026-05-07 06:50 -31.05306 150.64956 36207 ft 418 kts 225°
2026-05-07 06:50 -31.07619 150.63020 36204 ft 400 kts 234°
2026-05-07 06:50 -31.09692 150.60869 36204 ft 398 kts 234°
2026-05-07 06:51 -31.13818 150.56566 36204 ft 397 kts 234°
2026-05-07 06:51 -31.17944 150.52274 36208 ft 397 kts 234°
2026-05-07 06:52 -31.22038 150.48010 36208 ft 396 kts 234°
2026-05-07 06:52 -31.26153 150.43722 36209 ft 395 kts 234°
2026-05-07 06:53 -31.30252 150.39428 36216 ft 395 kts 234°
2026-05-07 06:53 -31.34339 150.35141 36213 ft 395 kts 234°
2026-05-07 06:54 -31.38433 150.30859 36214 ft 394 kts 234°
2026-05-07 06:54 -31.42501 150.26603 36216 ft 394 kts 234°
2026-05-07 06:55 -31.45619 150.23333 36214 ft 394 kts 234°
2026-05-07 06:55 -31.49705 150.19033 36214 ft 393 kts 234°
2026-05-07 06:56 -31.53752 150.14777 36216 ft 393 kts 233°
2026-05-07 06:56 -31.57835 150.10493 36217 ft 393 kts 233°
2026-05-07 06:57 -31.61899 150.06199 36223 ft 393 kts 233°
2026-05-07 06:57 -31.65971 150.01891 36211 ft 393 kts 233°
2026-05-07 06:58 -31.69355 149.98315 36210 ft 394 kts 233°
2026-05-07 06:58 -31.73426 149.94007 36214 ft 393 kts 233°
2026-05-07 06:59 -31.78159 149.88994 36216 ft 394 kts 232°
2026-05-07 06:59 -31.81576 149.85372 36224 ft 394 kts 232°
2026-05-07 07:00 -31.85613 149.81012 36228 ft 392 kts 234°
2026-05-07 07:00 -31.89400 149.76489 36234 ft 389 kts 236°
2026-05-07 07:01 -31.93121 149.71869 36237 ft 389 kts 236°
2026-05-07 07:01 -31.96877 149.67264 36241 ft 390 kts 235°
2026-05-07 07:02 -32.00654 149.62686 36234 ft 390 kts 234°
2026-05-07 07:02 -32.04440 149.58112 36242 ft 390 kts 234°
2026-05-07 07:03 -32.08224 149.53530 36240 ft 390 kts 234°
2026-05-07 07:03 -32.11998 149.48939 36241 ft 389 kts 234°
2026-05-07 07:04 -32.15765 149.44343 36244 ft 389 kts 234°
2026-05-07 07:04 -32.19513 149.39774 36249 ft 389 kts 233°
2026-05-07 07:05 -32.23276 149.35188 36248 ft 388 kts 233°
2026-05-07 07:05 -32.27014 149.30626 36247 ft 388 kts 233°
2026-05-07 07:06 -32.30739 149.26059 36241 ft 387 kts 233°
2026-05-07 07:06 -32.34486 149.21464 36243 ft 387 kts 232°
2026-05-07 07:07 -32.38228 149.16876 36245 ft 387 kts 232°
2026-05-07 07:07 -32.41951 149.12308 36249 ft 387 kts 232°
2026-05-07 07:08 -32.45690 149.07705 36252 ft 387 kts 232°
2026-05-07 07:08 -32.49404 149.03133 36251 ft 386 kts 231°
2026-05-07 07:09 -32.53132 148.98542 36253 ft 386 kts 231°
2026-05-07 07:09 -32.56860 148.93939 36250 ft 386 kts 231°
2026-05-07 07:10 -32.60592 148.89330 36250 ft 386 kts 231°
2026-05-07 07:10 -32.64295 148.84745 36256 ft 387 kts 231°
2026-05-07 07:11 -32.68013 148.80134 36257 ft 387 kts 231°
2026-05-07 07:11 -32.71738 148.75515 36260 ft 387 kts 230°
2026-05-07 07:12 -32.75470 148.70885 36259 ft 388 kts 230°
2026-05-07 07:12 -32.79195 148.66250 36259 ft 388 kts 230°
2026-05-07 07:13 -32.82891 148.61634 36256 ft 388 kts 230°
2026-05-07 07:13 -32.86630 148.56973 36252 ft 388 kts 230°
2026-05-07 07:14 -32.90345 148.52341 36252 ft 389 kts 230°
2026-05-07 07:14 -32.94083 148.47659 36260 ft 389 kts 230°
2026-05-07 07:15 -32.97809 148.42983 36264 ft 389 kts 229°
2026-05-07 07:15 -33.01516 148.38336 36262 ft 389 kts 229°
2026-05-07 07:16 -33.05245 148.33655 36265 ft 389 kts 229°
2026-05-07 07:16 -33.08952 148.28996 36264 ft 389 kts 229°
2026-05-07 07:17 -33.12688 148.24309 36265 ft 389 kts 226°
2026-05-07 07:17 -33.16930 148.20237 36270 ft 391 kts 221°
2026-05-07 07:18 -33.21239 148.16266 36270 ft 391 kts 221°
2026-05-07 07:18 -33.25524 148.12310 36276 ft 391 kts 221°
2026-05-07 07:19 -33.29830 148.08323 36275 ft 391 kts 221°
2026-05-07 07:19 -33.34130 148.04342 36280 ft 391 kts 221°
2026-05-07 07:20 -33.38441 148.00352 36284 ft 391 kts 221°
2026-05-07 07:20 -33.42740 147.96367 36281 ft 391 kts 220°
2026-05-07 07:21 -33.47006 147.92404 36278 ft 390 kts 220°
2026-05-07 07:21 -33.51300 147.88405 36274 ft 390 kts 220°
2026-05-07 07:22 -33.55573 147.84427 36274 ft 390 kts 220°
2026-05-07 07:22 -33.59862 147.80420 36272 ft 390 kts 220°
2026-05-07 07:23 -33.64158 147.76410 36275 ft 390 kts 220°
2026-05-07 07:23 -33.68446 147.72400 36274 ft 391 kts 220°
2026-05-07 07:24 -33.72733 147.68386 36276 ft 391 kts 220°
2026-05-07 07:24 -33.76995 147.64393 36271 ft 391 kts 220°
2026-05-07 07:25 -33.83425 147.58354 36274 ft 391 kts 220°
2026-05-07 07:26 -33.87722 147.54313 36268 ft 392 kts 220°
2026-05-07 07:26 -33.92019 147.50264 36266 ft 392 kts 220°
2026-05-07 07:27 -33.96291 147.46234 36269 ft 392 kts 219°
2026-05-07 07:27 -34.00592 147.42167 36268 ft 393 kts 219°
2026-05-07 07:28 -34.04895 147.38099 36258 ft 393 kts 219°
2026-05-07 07:28 -34.09204 147.34018 36257 ft 394 kts 219°
2026-05-07 07:29 -34.13509 147.29934 36257 ft 394 kts 219°
2026-05-07 07:29 -34.17811 147.25853 36258 ft 395 kts 219°
2026-05-07 07:30 -34.22133 147.21743 36255 ft 395 kts 219°
2026-05-07 07:30 -34.26459 147.17626 36258 ft 396 kts 219°
2026-05-07 07:31 -34.30787 147.13502 36259 ft 396 kts 219°
2026-05-07 07:31 -34.35119 147.09365 36259 ft 396 kts 219°
2026-05-07 07:32 -34.39445 147.05227 36258 ft 397 kts 219°
2026-05-07 07:32 -34.43754 147.01097 36258 ft 397 kts 219°
2026-05-07 07:33 -34.48088 146.96944 36260 ft 397 kts 218°
2026-05-07 07:33 -34.52422 146.92786 36263 ft 397 kts 218°
2026-05-07 07:34 -34.56738 146.88639 36260 ft 398 kts 218°
2026-05-07 07:34 -34.61083 146.84464 36262 ft 398 kts 218°
2026-05-07 07:35 -34.65420 146.80285 36264 ft 398 kts 218°
2026-05-07 07:35 -34.69761 146.76090 36266 ft 398 kts 218°
2026-05-07 07:36 -34.74096 146.71899 36266 ft 398 kts 218°
2026-05-07 07:36 -34.78405 146.67723 36267 ft 399 kts 218°
2026-05-07 07:37 -34.82755 146.63516 36265 ft 399 kts 218°
2026-05-07 07:37 -34.87102 146.59309 36266 ft 399 kts 218°
2026-05-07 07:38 -34.91442 146.55090 36267 ft 399 kts 218°
2026-05-07 07:38 -34.95788 146.50858 36272 ft 400 kts 218°
2026-05-07 07:39 -35.00134 146.46623 36270 ft 400 kts 218°
2026-05-07 07:39 -35.04461 146.42402 36275 ft 400 kts 218°
2026-05-07 07:40 -35.08816 146.38150 36272 ft 400 kts 218°
2026-05-07 07:40 -35.13165 146.33888 36275 ft 401 kts 218°
2026-05-07 07:41 -35.17493 146.29649 36274 ft 401 kts 218°
2026-05-07 07:41 -35.21844 146.25377 36278 ft 401 kts 218°
2026-05-07 07:42 -35.26195 146.21097 36282 ft 401 kts 218°
2026-05-07 07:42 -35.30542 146.16822 36283 ft 401 kts 218°
2026-05-07 07:43 -35.34891 146.12538 36283 ft 401 kts 218°
2026-05-07 07:43 -35.39237 146.08243 36282 ft 401 kts 218°
2026-05-07 07:44 -35.43556 146.03971 36283 ft 401 kts 218°
2026-05-07 07:44 -35.47910 145.99676 36288 ft 401 kts 218°
2026-05-07 07:45 -35.52257 145.95375 36290 ft 401 kts 218°
2026-05-07 07:45 -35.56597 145.91060 36288 ft 401 kts 218°
2026-05-07 07:46 -35.60938 145.86737 36293 ft 401 kts 218°
2026-05-07 07:46 -35.65288 145.82407 36294 ft 401 kts 218°
2026-05-07 07:47 -35.69598 145.78104 36290 ft 402 kts 218°
2026-05-07 07:47 -35.73938 145.73769 36293 ft 402 kts 218°
2026-05-07 07:48 -35.78286 145.69425 36292 ft 402 kts 218°
2026-05-07 07:48 -35.82624 145.65085 36295 ft 402 kts 218°
2026-05-07 07:49 -35.86958 145.60726 36296 ft 402 kts 218°
2026-05-07 07:49 -35.91261 145.56396 36292 ft 402 kts 218°
2026-05-07 07:50 -35.94872 145.52769 36290 ft 401 kts 218°
2026-05-07 07:50 -35.99201 145.48418 36292 ft 401 kts 218°
2026-05-07 07:51 -36.03512 145.44079 36287 ft 401 kts 218°
2026-05-07 07:51 -36.07842 145.39703 36288 ft 401 kts 218°
2026-05-07 07:52 -36.12151 145.35343 36287 ft 401 kts 218°
2026-05-07 07:52 -36.16473 145.30965 36290 ft 401 kts 218°
2026-05-07 07:53 -36.20805 145.26581 36286 ft 401 kts 218°
2026-05-07 07:53 -36.25119 145.22197 36283 ft 402 kts 218°
2026-05-07 07:54 -36.29439 145.17800 36281 ft 402 kts 218°
2026-05-07 07:54 -36.33743 145.13417 36282 ft 402 kts 218°
2026-05-07 07:55 -36.38069 145.09007 35961 ft 402 kts 218°
2026-05-07 07:55 -36.40227 145.06801 35570 ft 401 kts 218°
2026-05-07 07:55 -36.42384 145.04596 34860 ft 401 kts 218°
2026-05-07 07:55 -36.44553 145.02375 33841 ft 407 kts 218°
2026-05-07 07:56 -36.46753 145.00119 32674 ft 414 kts 218°
2026-05-07 07:56 -36.48979 144.97836 31536 ft 411 kts 219°
2026-05-07 07:56 -36.51166 144.95594 30470 ft 404 kts 219°
2026-05-07 07:56 -36.53316 144.93388 29290 ft 397 kts 219°
2026-05-07 07:57 -36.55402 144.91245 28173 ft 390 kts 219°
2026-05-07 07:57 -36.57473 144.89112 27104 ft 383 kts 219°
2026-05-07 07:57 -36.59555 144.86971 26080 ft 385 kts 219°
2026-05-07 07:57 -36.61600 144.84864 25098 ft 392 kts 220°
2026-05-07 07:58 -36.63749 144.82643 24129 ft 407 kts 220°
2026-05-07 07:58 -36.65933 144.80392 23055 ft 406 kts 220°
2026-05-07 07:58 -36.68098 144.78163 21963 ft 401 kts 219°
2026-05-07 07:58 -36.70229 144.75964 20929 ft 395 kts 219°
2026-05-07 07:59 -36.72330 144.73793 19913 ft 388 kts 219°
2026-05-07 07:59 -36.74396 144.71660 18939 ft 382 kts 219°
2026-05-07 07:59 -36.76432 144.69560 17897 ft 376 kts 218°
2026-05-07 07:59 -36.78611 144.67806 16828 ft 374 kts 206°
2026-05-07 08:00 -36.81050 144.66689 15785 ft 376 kts 195°
2026-05-07 08:00 -36.83615 144.66225 14812 ft 379 kts 185°
2026-05-07 08:00 -36.86235 144.66416 14111 ft 376 kts 175°
2026-05-07 08:00 -36.88807 144.66971 13320 ft 371 kts 174°
2026-05-07 08:01 -36.91329 144.67521 12578 ft 367 kts 174°
2026-05-07 08:01 -36.93832 144.68088 11856 ft 363 kts 173°
2026-05-07 08:01 -36.96299 144.68651 11163 ft 358 kts 173°
2026-05-07 08:01 -36.98744 144.69203 10526 ft 353 kts 173°
2026-05-07 08:02 -37.01120 144.69734 10188 ft 337 kts 173°
2026-05-07 08:02 -37.03307 144.70225 10065 ft 302 kts 174°
2026-05-07 08:02 -37.05269 144.70664 9914 ft 273 kts 174°
2026-05-07 08:02 -37.07057 144.71058 9785 ft 249 kts 175°
2026-05-07 08:03 -37.08734 144.71422 9651 ft 243 kts 175°
2026-05-07 08:03 -37.10401 144.71780 9517 ft 243 kts 175°
2026-05-07 08:03 -37.12072 144.72135 9392 ft 245 kts 175°
2026-05-07 08:03 -37.13747 144.72494 9257 ft 244 kts 175°
2026-05-07 08:04 -37.15418 144.72855 9125 ft 244 kts 175°
2026-05-07 08:04 -37.17068 144.73216 8993 ft 244 kts 175°
2026-05-07 08:04 -37.18740 144.73628 8864 ft 245 kts 174°
2026-05-07 08:04 -37.20409 144.74073 8732 ft 245 kts 173°
2026-05-07 08:05 -37.22076 144.74529 8603 ft 245 kts 173°
2026-05-07 08:05 -37.23737 144.74982 8468 ft 246 kts 173°
2026-05-07 08:05 -37.25435 144.75439 8007 ft 250 kts 173°
2026-05-07 08:05 -37.27151 144.75898 7577 ft 253 kts 173°
2026-05-07 08:06 -37.28874 144.76361 7209 ft 253 kts 173°
2026-05-07 08:06 -37.30560 144.76816 7087 ft 243 kts 174°
2026-05-07 08:06 -37.32190 144.77257 6944 ft 234 kts 174°
2026-05-07 08:06 -37.33766 144.77646 6772 ft 230 kts 177°
2026-05-07 08:07 -37.35419 144.77943 6486 ft 244 kts 178°
2026-05-07 08:07 -37.37107 144.78248 6150 ft 246 kts 178°
2026-05-07 08:07 -37.38800 144.78561 5818 ft 245 kts 178°
2026-05-07 08:07 -37.40447 144.78869 5477 ft 237 kts 178°
2026-05-07 08:08 -37.42037 144.79166 5164 ft 226 kts 178°
2026-05-07 08:08 -37.43555 144.79448 4853 ft 215 kts 179°
2026-05-07 08:08 -37.45001 144.79716 4565 ft 205 kts 178°
2026-05-07 08:08 -37.46384 144.79972 4285 ft 196 kts 179°
2026-05-07 08:09 -37.47717 144.80218 4021 ft 192 kts 178°
2026-05-07 08:09 -37.49033 144.80462 3775 ft 188 kts 179°
2026-05-07 08:09 -37.50307 144.80699 3526 ft 184 kts 179°
2026-05-07 08:09 -37.51563 144.80932 3250 ft 180 kts 179°
2026-05-07 08:10 -37.52785 144.81159 3009 ft 175 kts 179°
2026-05-07 08:10 -37.53982 144.81379 2783 ft 172 kts 178°
2026-05-07 08:10 -37.55148 144.81615 2540 ft 166 kts 178°
2026-05-07 08:10 -37.56259 144.81871 2270 ft 157 kts 177°
2026-05-07 08:11 -37.57281 144.82069 2057 ft 146 kts 179°
2026-05-07 08:11 -37.58269 144.82190 1818 ft 139 kts 182°
2026-05-07 08:11 -37.59216 144.82347 1692 ft 137 kts 178°
2026-05-07 08:11 -37.60155 144.82536 1505 ft 136 kts 176°
2026-05-07 08:12 -37.61087 144.82729 1307 ft 135 kts 176°
2026-05-07 08:12 -37.62018 144.82914 1126 ft 135 kts 178°
2026-05-07 08:12 -37.62946 144.83052 959 ft 134 kts 178°
2026-05-07 08:12 -37.63870 144.83213 751 ft 134 kts 175°
2026-05-07 08:13 -37.64775 144.83405 626 ft 133 kts 176°
2026-05-07 08:13 -37.65689 144.83568 436 ft 130 kts 176°
2026-05-07 08:13 -37.66401 144.83692 408 ft 65 kts 171°
2026-05-07 08:13 -37.66571 144.83729 406 ft 3 kts 130°
2026-05-07 08:14 -37.66525 144.83805 404 ft 17 kts 53°
2026-05-07 08:14 -37.66511 144.83894 407 ft 0 kts 93°
2026-05-07 08:15 -37.66512 144.83916 407 ft 0 kts 91°
2026-05-07 08:15 -37.66512 144.83936 407 ft 5 kts 91°
2026-05-07 08:15 -37.66514 144.84003 408 ft 10 kts 95°
2026-05-07 08:16 -37.66538 144.84107 409 ft 15 kts 132°
2026-05-07 08:16 -37.66635 144.84164 406 ft 18 kts 174°
2026-05-07 08:16 -37.66790 144.84193 399 ft 27 kts 169°
2026-05-07 08:16 -37.66986 144.84226 393 ft 26 kts 172°
2026-05-07 08:17 -37.67150 144.84258 388 ft 12 kts 169°
2026-05-07 08:17 -37.67229 144.84308 385 ft 15 kts 128°
2026-05-07 08:17 -37.67294 144.84411 384 ft 4 kts 128°
2026-05-07 08:17 -37.67294 144.84412 384 ft 0 kts 128°